FW3190 Weather Reports


time (UTC)temp
C
wind
direction
speed
KPH
gust
KPH
rain 1hr
cm
rain 24hr
cm
rain mn
cm
humidity
%
barometer
mb
20260503174512 12 124 4.8 19.3 0.00 0.00 0.00 87 1016.0
20260503173008 12 323 4.8 16.1 0.00 0.00 0.00 87 1016.0
20260503171506 12 24 3.2 12.9 0.00 0.00 0.00 90 1015.8
20260503150109 11 53 0.0 4.8 0.00 0.00 0.00 87 1015.2
20260503081606 11 79 8.0 17.7 0.00 0.00 0.00 88 1014.5
20260503071548 11 26 0.0 8.0 0.00 0.00 0.00 87 1014.6
20260503054539 11 48 3.2 12.9 0.00 0.00 0.00 87 1015.1
20260503053033 11 37 4.8 12.9 0.00 0.00 0.00 87 1015.2
20260503051531 11 36 8.0 17.7 0.00 0.00 0.00 87 1015.2
20260503050031 11 54 4.8 14.5 0.00 0.00 0.00 87 1015.2
20260503044531 11 58 8.0 20.9 0.00 0.00 0.00 86 1015.0
20260503043031 11 44 4.8 17.7 0.00 0.00 0.00 86 1015.0
20260503041529 11 55 8.0 22.5 0.00 0.00 0.00 86 1014.7
20260503040027 11 34 6.4 20.9 0.00 0.00 0.00 86 1014.8
20260503034523 11 74 6.4 17.7 0.00 0.00 0.00 87 1014.7
20260503033027 11 42 4.8 20.9 0.00 0.00 0.00 86 1014.6
20260503031521 11 60 6.4 16.1 0.00 0.00 0.00 86 1014.4
20260503030019 11 56 9.7 22.5 0.00 0.00 0.00 85 1014.2
20260503024521 11 63 9.7 17.7 0.00 0.00 0.00 85 1014.1
20260503023017 11 39 8.0 20.9 0.00 0.00 0.00 85 1014.1
20260503021515 11 65 6.4 17.7 0.00 0.00 0.00 84 1014.2
20260503020012 11 18 11.3 19.3 0.00 0.00 0.00 83 1014.3
20260503014510 12 337 11.3 22.5 0.00 0.00 0.00 82 1014.2
20260503013009 12 46 9.7 22.5 0.00 0.00 0.00 82 1014.2
20260503011510 12 126 8.0 22.5 0.00 0.00 0.00 82 1014.3
20260503010008 12 328 8.0 22.5 0.00 0.00 0.00 81 1014.4
20260503004517 12 41 6.4 20.9 0.00 0.00 0.00 80 1014.5
20260503003004 12 6 8.0 24.1 0.00 0.00 0.00 80 1014.5
20260503001503 13 51 9.7 22.5 0.00 0.00 0.00 79 1014.6
20260503000001 13 57 9.7 22.5 0.00 0.00 0.00 78 1014.6
20260502234601 13 47 8.0 19.3 0.00 0.00 0.00 78 1014.7
20260502233101 12 44 11.3 24.1 0.00 0.00 0.00 80 1014.8
20260502231557 13 75 11.3 22.5 0.00 0.00 0.00 81 1015.1
20260502230055 13 82 9.7 19.3 0.00 0.00 0.00 79 1015.2
20260502224608 13 39 9.7 20.9 0.00 0.00 0.00 79 1015.3
20260502223057 13 25 9.7 22.5 0.00 0.00 0.00 77 1015.6
20260502221555 13 18 9.7 22.5 0.00 0.00 0.00 76 1015.8
20260502220053 13 39 6.4 19.3 0.00 0.00 0.00 77 1015.9
20260502214552 13 70 6.4 24.1 0.00 0.00 0.00 78 1016.1
20260502213105 13 6 4.8 19.3 0.00 0.00 0.00 80 1016.2
20260502211610 13 39 6.4 22.5 0.00 0.00 0.00 80 1016.2
20260502210050 13 359 9.7 24.1 0.00 0.00 0.00 80 1016.4
20260502204549 13 42 9.7 22.5 0.00 0.00 0.00 79 1016.5
20260502203057 13 56 8.0 17.7 0.00 0.00 0.00 81 1016.8
20260502201549 13 32 6.4 16.1 0.00 0.00 0.00 82 1017.0
20260502200044 12 49 9.7 22.5 0.00 0.00 0.00 85 1017.0
20260502194549 13 48 4.8 14.5 0.00 0.00 0.00 84 1017.1
20260502193039 12 44 3.2 16.1 0.00 0.00 0.00 86 1017.2
20260502191539 12 86 4.8 14.5 0.00 0.00 0.00 87 1017.1
20260502190041 12 63 4.8 12.9 0.00 0.00 0.00 88 1017.2
20260502184549 12 45 3.2 12.9 0.00 0.00 0.00 88 1017.1
20260502183049 12 103 3.2 17.7 0.00 0.00 0.00 88 1017.1
20260502181540 12 36 1.6 19.3 0.00 0.00 0.00 90 1017.1